Weather Roundup
Issued by NWS

Home | Current Version | Previous Version | Graphics & Text | Print | Product List | Glossary Off
Versions: 1 2 3 4 5 6 7 8 9 10 11 12 13 14 15 16 17 18 19 20 21 22 23 24 25 26 27 28 29 30 31 32 33 34 35 36 37 38 39 40 41 42 43 44 45 46 47 48 49 50

269
NZUS93 KARX 291259
HRRWXR

CURRENT HOURLY OBSERVATIONS ACROSS
MUCH OF THE UPPER MISSISSIPPI VALLEY
NATIONAL WEATHER SERVICE LA CROSSE WI
800 AM CDT MON MAY 29 2017


...SOUTHEAST MINNESOTA...


CITY           SKY/WX    TMP DP  RH WIND       PRES   REMARKS
ROCHESTER      MOSUNNY   53  46  77 W20       29.83R
ROCHESTER/MAYO PTSUNNY   54  46  74 W13G20    29.82R
WINONA         CLOUDY    55  46  71 W9        29.80R
AUSTIN         MOSUNNY   55  45  67 W14G20    29.84S
ALBERT LEA     CLOUDY    57  46  67 W9        29.86S
DODGE CENTER   PTSUNNY   54  45  71 W10G18    29.83R
PRESTON        CLOUDY    54  45  72 W14G21    29.83F
OWATONNA       PTSUNNY   55  45  67 W14       29.83R
FARIBAULT      PTSUNNY   55  46  71 W12       29.82R
$$

...ELSEWHERE IN MINNESOTA...


CITY           SKY/WX    TMP DP  RH WIND       PRES   REMARKS
MINNEAPOLIS    CLOUDY    56  47  71 W13G21    29.78R
INTNL FALLS    LGT RAIN  49  47  93 W12       29.67R FOG
DULUTH         CLOUDY    52  47  83 NW16      29.65S
RED WING       RAIN      55  46  71 NW9       29.78R
REDWOOD FALLS  CLOUDY    54  46  74 W12       29.85S
MANKATO        CLOUDY    55  46  71 W13       29.84R
WORTHINGTON    SUNNY     53  46  77 W18       29.91R
FAIRMONT       MOSUNNY   57  46  66 W13       29.88S
$$

...SOUTHWEST WISCONSIN...


CITY           SKY/WX    TMP DP  RH WIND       PRES   REMARKS
LA CROSSE      PTSUNNY   57  48  72 W14       29.79R
PRAIRIE DU CHI SUNNY     59  45  59 W9        29.83S
BOSCOBEL       SUNNY     60  47  61 W13G20    29.81S
LONE ROCK      NOT AVBL
PLATTEVILLE    SUNNY     59  49  70 W14G20    29.83S
FORT MC COY    CLOUDY    55  48  78 W10G16    29.78S
MAUSTON-NEW LI MOSUNNY   57  47  70 W13       29.75S
VIROQUA        FAIR      55  47  73 MISG      29.81R
WIS DELLS      SUNNY     57  45  64 W10       29.77S
$$

...ELSEWHERE IN WISCONSIN...


CITY           SKY/WX    TMP DP  RH WIND       PRES   REMARKS
MILWAUKEE      SUNNY     65  46  50 W15G23    29.75S
MADISON        MOSUNNY   60  46  59 VRB6      29.77S
GREEN BAY      CLOUDY    59  52  77 W14       29.69S
EAU CLAIRE     NOT AVBL
BLACK RVR FLS  CLOUDY    56  50  80 W10G16    29.76R
MEDFORD        CLOUDY    49  47  93 W8        29.70R
WAUSAU         CLOUDY    53  48  83 W8        29.69R
WIS RAPIDS     CLOUDY    54  48  80 W10       29.74S
MARSHFIELD     CLOUDY    52  47  83 W10       29.72R
RICE LAKE      CLOUDY    53  49  87 W9        29.73R
$$

...NORTHEAST IOWA...


CITY           SKY/WX    TMP DP  RH WIND       PRES   REMARKS
WATERLOO       SUNNY     60  45  57 W15       29.87S
DUBUQUE        SUNNY     58  47  66 W14       29.84S
DECORAH        SUNNY     55  46  71 W10       29.83S
MASON CITY     SUNNY     57  46  66 W12G21    29.89S
CHARLES CITY   SUNNY     57  45  62 W18       29.87S
OELWEIN        SUNNY     59  46  63 W15G22    29.87S
$$

...ELSEWHERE IN IOWA...


CITY           SKY/WX    TMP DP  RH WIND       PRES   REMARKS
DES MOINES     PTSUNNY   62  48  60 NW7       29.92S
IOWA CITY      CLOUDY    61  49  64 NW7       29.89S
FORT DODGE     SUNNY     57  46  67 W8        29.93S
MARSHALLTOWN   MOSUNNY   59  49  69 W8        29.89S
CEDAR RAPIDS   MOSUNNY   60  50  69 NW12      29.87S
$$

...NORTHERN ILLINOIS...


CITY           SKY/WX    TMP DP  RH WIND       PRES   REMARKS
CHICAGO-OHARE  MOSUNNY   66  49  54 W9        29.79S
CHICAGO-MIDWAY MOSUNNY   68  49  50 W7        29.80F
MOLINE         CLOUDY    63  47  55 NW13      29.86R
ROCKFORD       PTSUNNY   66  49  54 W13       29.83R
PEORIA         SUNNY     63  53  70 W6        29.87R
$$

NOTE: "FAIR" INDICATES FEW OR NO CLOUDS BELOW 12,000 FEET WITH NO
SIGNIFICANT WEATHER AND/OR OBSTRUCTIONS TO VISIBILITY. WIND
SPEEDS ARE IN MILES-PER-HOUR.




USA.gov is the U.S. government's official web portal to all federal, state and local government web resources and services.